RH
100 100 100 94 89 99 100 50 47 36 35 18 18 17 19 28 20 18 14 14 12 13 16 20 22 30 32
76 100 100 87 99 89 81 76 47 39 33 20 21 17 18 20 23 18 15 13 13 14 17 23 31 39 43
98 96 100 100 100 87 100 90 50 48 42 25 23 22 16 19 21 19 19 15 15 17 19 25 34 50 40
99 100 86 100 100 100 99 92 70 55 36 25 24 28 17 21 18 16 21 21 17 18 21 27 36 40 44
92 85 84 85 100 100 100 100 80 56 38 35 25 30 19 20 17 16 24 21 22 20 22 25 37 43 55
100 80 92 88 90 100 100 100 94 58 46 26 21 34 29 18 18 15 25 22 20 23 21 29 37 50 57
100 85 75 86 96 100 100 100 82 74 40 18 19 49 42 22 18 19 20 19 19 20 26 32 41 58 72
100 86 81 68 66 72 54 62 94 66 22 18 22 59 53 24 22 29 18 18 23 23 36 40 56 71 97
100 100 90 83 76 98 100 100 100 65 26 21 26 64 48 27 29 34 22 20 31 34 47 59 67 90 100
100 100 98 100 87 98 100 100 95 55 34 20 46 70 45 33 35 48 29 25 41 51 62 87 74 92 84
100 100 100 83 85 98 100 100 64 63 34 26 79 83 62 37 44 46 27 26 64 74 72 58 91 82 95
100 100 100 80 91 100 100 100 64 60 29 23 38 78 68 39 32 40 33 28 62 73 47 39 53 100 90
100 100 100 90 100 100 99 100 86 54 33 27 33 31 70 44 31 37 43 34 55 58 50 39 61 100 92
100 100 100 100 92 83 91 94 75 49 34 30 34 36 46 57 39 39 39 42 46 52 45 55 50 90 87
100 100 93 100 100 92 81 72 56 46 38 37 37 50 42 80 46 42 42 42 50 49 56 53 48 54 72
100 100 100 100 100 100 91 84 69 55 47 44 44 48 57 65 57 49 45 45 53 71 73 69 49 47 56
100 100 100 100 100 100 100 91 77 68 57 49 53 92 95 62 60 49 53 55 49 46 77 87 74 60 58
Wind_Speed
71 63 60 55 48 42 39 37 31 26 25 24 26 29 34 35 33 29 27 22 27 31 35 36 42 45 49
74 69 65 58 52 45 41 40 36 31 31 29 29 26 32 36 38 33 29 28 29 32 34 37 41 45 52
74 73 69 62 54 50 48 42 38 35 31 27 31 30 31 36 40 35 32 30 29 34 36 38 42 46 49
79 75 69 64 56 55 49 46 44 39 31 25 30 31 33 37 40 38 35 34 32 34 37 39 44 45 49
85 76 70 65 55 56 56 53 51 42 34 38 35 33 37 38 38 40 40 36 34 36 38 42 43 47 49
92 82 71 68 65 62 61 55 53 46 47 46 35 36 40 32 37 38 42 39 38 39 43 43 46 48 51
93 85 79 73 67 70 65 65 61 56 51 40 37 42 42 35 37 37 40 40 40 41 44 47 47 50 52
93 87 82 79 78 80 79 70 63 52 49 39 42 48 42 38 37 40 40 42 42 44 45 48 50 51 52
97 91 87 81 79 77 69 63 55 46 44 44 47 52 46 39 40 44 40 41 43 47 46 48 51 50 52
105 100 93 86 80 77 73 68 58 52 49 50 53 52 46 41 44 47 44 42 42 44 47 49 54 53 56
108 102 95 89 84 79 68 65 69 60 53 53 56 48 48 46 49 51 47 42 45 46 48 52 51 53 57
111 106 99 90 85 78 72 75 70 62 55 52 52 50 51 47 50 55 50 44 48 49 49 52 53 53 58
112 110 101 96 89 83 81 72 66 69 61 58 54 49 55 54 51 54 52 45 49 47 49 53 55 55 60
115 113 103 97 94 88 87 82 77 70 62 58 52 52 57 57 54 53 52 50 49 49 51 52 57 57 62
120 112 106 97 94 88 90 84 77 67 61 62 55 59 57 57 56 55 55 52 51 53 56 54 57 63 66
124 116 109 104 95 91 87 79 72 69 66 62 60 59 60 58 60 57 58 55 56 57 59 58 61 64 67
124 116 115 107 98 94 91 84 75 68 69 65 63 66 65 64 61 58 59 57 59 60 60 63 66 67 70
Wind_Direction
215 215 220 219 219 225 232 238 237 245 262 284 275 287 297 306 316 303 295 293 287 289 297 309 321 323 331
214 214 219 220 220 220 232 237 228 244 254 267 269 282 290 298 308 308 301 294 295 299 304 318 322 326 326
212 214 217 219 219 220 228 229 230 243 241 255 274 271 285 297 300 309 306 296 299 302 310 317 318 321 330
212 214 214 216 216 219 225 227 230 232 242 262 269 266 279 285 294 303 311 301 301 305 309 313 317 322 328
215 215 213 217 216 222 224 223 226 230 240 260 262 260 276 279 287 297 306 311 299 300 305 309 314 322 328
222 219 214 214 216 221 220 221 232 227 240 254 261 258 269 274 284 299 305 305 303 299 301 307 312 320 325
220 221 218 216 215 217 224 230 233 233 244 251 263 253 264 267 283 288 297 298 299 304 304 308 313 321 322
218 220 217 217 217 225 227 229 226 234 248 260 252 252 262 268 281 285 297 296 299 301 304 310 315 320 320
216 217 216 217 220 219 223 218 222 236 242 252 249 250 258 266 275 278 292 294 298 301 305 311 313 316 317
220 219 218 216 219 219 220 224 228 233 244 250 245 246 255 263 270 276 280 293 295 300 304 308 311 313 318
218 218 216 219 218 220 219 224 228 231 240 239 243 248 257 258 266 272 277 293 294 296 304 306 309 316 317
215 218 215 218 217 216 217 225 228 226 238 245 244 249 251 256 265 269 274 285 291 292 300 307 317 317 316
216 218 215 215 214 214 221 223 223 238 240 254 241 251 251 253 260 270 273 283 288 292 296 305 312 315 317
216 217 216 216 218 218 223 226 234 241 242 235 244 247 247 254 258 268 271 279 284 287 293 303 310 310 314
213 215 221 222 222 222 228 228 236 232 234 235 246 245 249 252 257 265 269 275 281 288 291 297 305 310 313
217 220 221 222 223 223 225 228 231 227 233 241 243 247 246 251 257 264 267 272 279 284 289 294 299 304 313
217 219 221 221 221 224 225 231 227 229 230 245 241 243 245 249 259 264 268 271 272 285 286 291 294 299 307